Regional Weather Roundup
Issued by NWS Cleveland, OH

Home | Current Version | Previous Version | Graphics & Text | Print | Product List | Glossary On
Versions: 1 2 3 4 5 6 7 8 9 10 11 12 13 14 15 16 17 18 19 20 21 22 23 24 25 26 27 28 29 30 31 32 33 34 35 36 37 38 39 40 41 42 43 44 45 46 47 48 49 50
000
ASUS41 KCLE 181302
RWRCLE
OHIO REGIONAL WEATHER ROUNDUP
NATIONAL WEATHER SERVICE CLEVELAND, OH
800 AM EST THU DEC 18 2014

NOTE: "FAIR" INDICATES FEW OR NO CLOUDS BELOW 12,000 FEET WITH NO
SIGNIFICANT WEATHER AND/OR OBSTRUCTIONS TO VISIBILITY.

OHZ001>008-015>018-024>027-034-035-043-044-181400-
   NORTHWEST OHIO

CITY           SKY/WX    TMP DP  RH WIND       PRES   REMARKS
DEFIANCE       NOT AVBL
FINDLAY        CLOUDY    29  22  75 W7        30.21F WCI  22
TOLEDO EXPRESS CLOUDY    29  22  75 W8        30.21F WCI  21
TOLEDO EXEC    CLOUDY    30  22  72 W7        30.22F WCI  23
LIMA           CLOUDY    30  21  69 W5        30.22F WCI  25
$$

OHZ009>014-019>023-028>033-038-089-181400-
   NORTHEAST OHIO

CITY           SKY/WX    TMP DP  RH WIND       PRES   REMARKS
CLE-HOPKINS    CLOUDY    29  22  75 W9        30.22S WCI  20
CLE-LAKEFRONT  CLOUDY    32  24  72 W16       30.19S WCI  21
CUY CO. ARPT   CLOUDY    32  27  80 NW12      30.18F WCI  23
LORAIN-ELYRIA  CLOUDY    28  22  78 W6        30.21R WCI  22
ASHTABULA      CLOUDY    30  24  78 NW7       30.16S WCI  23
AKRON-CANTON   CLOUDY    28  21  75 W10       30.18S WCI  19
WOOSTER        CLOUDY    27  21  78 W10       30.21R WCI  17
MANSFIELD      CLOUDY    26  21  81 SW7       30.20R WCI  18
YOUNGSTOWN     FLURRIES  28  21  75 W9        30.15S WCI  19
$$

OHZ042-051>053-060>062-070>072-077>081-181400-
  SOUTHWEST OHIO

CITY           SKY/WX    TMP DP  RH WIND       PRES   REMARKS
CINC-COVINGTON CLOUDY    26  18  71 CALM      30.27R
CINC-LUNKEN    CLOUDY    25  21  85 SE3       30.30S
HAMILTON       CLOUDY    27  20  75 CALM      30.29R
DAYTON         CLOUDY    27  19  72 NW3       30.25F
WRIGHT-PAT AFB CLOUDY    27  19  72 VRB1      30.25F
DAYTON GENERAL CLOUDY    26  18  71 CALM      30.25R
WILMINGTON     CLOUDY    25  17  72 VRB5      30.24F WCI  19
$$

OHZ036-037-039>041-045>050-054>059-063>069-073>076-082>088-181400-
  CENTRAL AND SOUTHEAST OHIO

CITY           SKY/WX    TMP DP  RH WIND       PRES   REMARKS
COLUMBUS       CLOUDY    27  19  72 N7        30.25R WCI  19
OSU AIRPORT    CLOUDY    27  19  72 NW5       30.23F WCI  22
BOLTON FIELD   CLOUDY    27  19  74 CALM      30.24F
RICKENBACK AFB NOT AVBL
NEWARK         CLOUDY    28  20  71 W5        30.24R WCI  23
MARION         CLOUDY    27  20  75 W3        30.23S
LANCASTER      CLOUDY    28  19  69 W3        30.25S
ZANESVILLE     CLOUDY    27  18  69 W5        30.24R WCI  22
NEW PHILLY     CLOUDY    29  21  72 W6        30.23R WCI  23
$$


USA.gov is the U.S. government's official web portal to all federal, state and local government web resources and services.